Zurück zum Katalog

YZ-1 R/B

AktivMEO
NORAD 43248·ROCKET BODY·🇨🇳 China

Gestartet Mar 29, 2018 von Xichang Satellite Launch Center

Loading…

Nächste Überflüge (nächste 24 Stunden)

TLE

AktuellSource: Space-Track

Epoche: Sep 13, 2026, 10:27 UTC

1 43248U 18029D   26256.43545953 -.00000062  00000-0  00000-0 0  9999
2 43248  54.5866 307.8881 0101146  44.1367 316.7355  1.77724232 54914

Verfolge YZ-1 R/B in Echtzeit mit AllMySat

Download on the App Store